Location: Naloco
(16.5478°S, 37.1017°E)
Time: 02:07:09
(UTC+00:00)

Delta 2 Rocket - Pass Details

Date: 13 August 2020
Orbit: 416 x 807 km, 35.6° (Epoch: 23 September)

Event Time Altitude Azimuth Distance (km) Brightness Sun altitude
Rises 16:02:56 0° 229° (SW) 3,155 7.8 -10.3°
Reaches altitude 10° 16:05:39 10° 222° (SW) 2,169 6.8 -10.9°
Maximum altitude 16:10:25 40° 152° (SSE) 946 4.2 -12.0°
Enters shadow 16:13:22 18° 90° (E) 1,488 4.9 -12.7°
